"Time","Temp","Dewpoint","Humidity","Pressure","Direction","Speed","Gust","Precip","PrecipRate","Solar"
"00:04:58","43","32.8","67","29.67","307","3","10.4","0.00","0.00","0"
"00:09:59","42.9","32.7","67","29.67","289","3.7","10.8","0.00","0.00","0"
"00:14:57","42.8","32.6","67","29.68","296","2.1","6","0.00","0.00","0"
"00:19:56","42.7","32.5","67","29.68","324","4","10.8","0.00","0.00","0"
"00:24:58","42.7","32.5","67.1","29.68","324","4.1","10.4","0.00","0.00","0"
"00:29:57","42.7","32.6","67.2","29.68","315","2.2","6.9","0.00","0.00","0"
"00:34:56","42.5","32.7","68.1","29.68","301","2","6","0.00","0.00","0"
"00:39:56","42.3","32.5","68","29.68","329","2.1","5.8","0.00","0.00","0"
"00:44:58","42","32.7","69.2","29.68","276","2.1","7.2","0.00","0.00","0"
"00:49:59","41.9","32.5","69","29.68","285","1.9","6","0.00","0.00","0"
"00:54:58","41.9","32.5","69","29.68","312","2.3","6","0.00","0.00","0"
"00:59:57","42","32.6","69","29.69","340","1.6","4.8","0.00","0.00","0"
"01:04:58","41.9","32.5","69","29.69","310","1.1","3.6","0.00","0.00","0"
"01:09:57","41.7","32.3","69","29.69","272","0.9","3.6","0.00","0.00","0"
"01:14:56","41.5","32.4","70","29.70","272","0.3","1.2","0.00","0.00","0"
"01:19:59","41.3","32.2","70","29.70","272","0.1","1.2","0.00","0.00","0"
"01:24:58","41.1","32.2","70.5","29.70","272","0","1.2","0.00","0.00","0"
"01:29:57","40.9","32.2","71","29.70","272","0.1","2.4","0.00","0.00","0"
"01:34:59","40.6","31.9","71","29.70","271","1.4","3.6","0.00","0.00","0"
"01:39:59","40.5","32","71.4","29.70","254","1","3.6","0.00","0.00","0"
"01:44:58","40.5","32.2","72","29.70","254","0.6","2.4","0.00","0.00","0"
"01:49:56","40.5","32.2","72","29.70","254","1.2","3.6","0.00","0.00","0"
"01:54:59","40.3","32.2","72.7","29.70","254","1.4","3.5","0.00","0.00","0"
"01:59:58","40.2","32.2","73","29.70","243","1.3","4.8","0.00","0.00","0"
"02:04:59","40.4","32.4","73","29.70","218","1.8","4.8","0.00","0.00","0"
"02:09:58","40.6","32.5","72.7","29.70","225","1.3","4.6","0.00","0.00","0"
"02:14:57","40.8","32.5","72","29.70","224","1.5","4.8","0.00","0.00","0"
"02:19:56","40.8","32.6","72.5","29.70","226","1.8","4.6","0.00","0.00","0"
"02:24:58","40.7","32.5","72.2","29.70","227","0.7","3.6","0.00","0.00","0"
"02:29:57","40.6","32.5","72.9","29.70","241","1.6","4.8","0.00","0.00","0"
"02:34:55","40.6","32.4","72.4","29.70","219","1.5","6","0.00","0.00","0"
"02:39:59","40.8","32.5","72","29.70","219","0.6","2.4","0.00","0.00","0"
"02:44:57","40.8","32.5","72","29.70","219","0.3","2.4","0.00","0.00","0"
"02:49:57","40.8","32.5","72","29.70","219","0.3","2.3","0.00","0.00","0"
"02:54:59","40.8","32.5","72","29.70","219","0","1.2","0.00","0.00","0"
"02:59:59","40.7","32.4","72","29.70","219","0.1","1.2","0.00","0.00","0"
"03:04:57","40.4","32.2","72.3","29.70","219","0","0","0.00","0.00","0"
"03:09:56","39.8","31.9","73.1","29.70","219","0","1.2","0.00","0.00","0"
"03:14:59","39.4","31.9","74.3","29.70","219","0","0","0.00","0.00","0"
"03:19:58","38.9","31.7","75","29.70","219","0","1.2","0.00","0.00","0"
"03:24:57","38.5","31.6","76","29.70","219","0","1.2","0.00","0.00","0"
"03:29:56","38.1","31.5","77","29.70","219","0","1.2","0.00","0.00","0"
"03:34:59","37.8","31.5","77.7","29.70","219","0","0","0.00","0.00","0"
"03:39:58","37.5","31.4","78.2","29.70","219","0","1.2","0.00","0.00","0"
"03:44:57","37.2","31.3","79","29.70","219","0.1","1.2","0.00","0.00","0"
"03:49:56","36.9","31.2","79.6","29.70","219","0","1.2","0.00","0.00","0"
"03:54:58","36.7","31.2","80.1","29.70","219","0.1","1.2","0.00","0.00","0"
"03:59:58","36.6","31.2","80.8","29.70","219","0","1.2","0.00","0.00","0"
"04:04:59","36.3","31","81","29.70","219","0","0","0.00","0.00","0"
"04:09:58","36.1","31.1","82","29.70","219","0","0","0.00","0.00","0"
"04:14:58","36.1","31.1","82","29.70","219","0","0","0.00","0.00","0"
"04:19:59","36","31.1","82.2","29.69","219","0","0","0.00","0.00","0"
"04:24:59","35.9","31.1","82.7","29.69","219","0","0","0.00","0.00","0"
"04:29:58","35.9","31.2","83","29.69","219","0","1.2","0.00","0.00","0"
"04:34:56","36.1","31.4","83","29.69","219","0.8","3.6","0.00","0.00","0"
"04:39:56","36.5","31.8","83","29.69","219","0.2","2.4","0.00","0.00","0"
"04:44:58","37.1","32.2","82.3","29.69","225","0.5","3.6","0.00","0.00","0"
"04:49:57","37.7","32.7","81.9","29.69","227","0.1","2.3","0.00","0.00","0"
"04:54:59","38","32.7","81","29.69","227","0","1.2","0.00","0.00","0"
"04:59:59","38.2","32.9","81","29.69","273","0.9","4.8","0.00","0.00","0"
"05:04:57","38.5","33","80.4","29.69","287","0.3","2.4","0.00","0.00","0"
"05:09:59","38.6","33","80","29.69","287","0","0","0.00","0.00","0"
"05:14:56","38.6","33","80","29.70","287","0.4","2.4","0.00","0.00","0"
"05:19:59","38.4","32.8","80","29.70","287","0.6","2.4","0.00","0.00","0"
"05:24:58","38.3","32.7","80","29.70","129","1.4","3.6","0.00","0.00","0"
"05:29:57","38.4","33","80.7","29.70","130","1.3","3.6","0.00","0.00","0"
"05:34:58","38.5","32.9","80","29.70","130","0.1","2.3","0.00","0.00","0"
"05:39:56","38.8","33.2","80","29.70","130","0.1","1.2","0.00","0.00","0"
"05:44:57","38.9","33.3","80","29.71","130","0","1.2","0.00","0.00","0"
"05:49:57","38.8","33.2","80","29.71","130","0","0","0.00","0.00","0"
"05:54:59","38.6","33","80","29.71","130","0","0","0.00","0.00","0"
"05:59:58","38.5","33","80.3","29.71","104","0.7","2.4","0.00","0.00","0"
"06:04:55","38.2","32.9","81","29.71","83","0.3","2.4","0.00","0.00","0"
"06:09:56","38","32.7","81","29.71","83","0.3","2.4","0.00","0.00","0"
"06:14:58","37.8","32.6","81.4","29.72","58","0.3","2.4","0.00","0.00","0"
"06:19:57","37.5","32.5","82","29.72","53","0","2.3","0.00","0.00","0"
"06:24:56","37.3","32.3","82","29.72","53","0","1.2","0.00","0.00","0"
"06:29:59","37","32","82.2","29.73","53","0","0","0.00","0.00","0"
"06:34:57","36.6","31.9","83","29.73","52","0","0","0.00","0.00","0"
"06:39:57","36.4","32","83.8","29.73","52","0","0","0.00","0.00","0"
"06:44:56","36.2","31.8","84","29.73","52","0","0","0.00","0.00","0"
"06:49:59","35.9","31.8","84.9","29.73","52","0","0","0.00","0.00","0"
"06:54:58","35.8","31.7","85","29.73","52","0","0","0.00","0.00","5"
"06:59:57","35.5","31.6","85.7","29.74","52","0","0","0.00","0.00","5"
"07:04:58","35.3","31.5","86","29.74","45","0.1","3.6","0.00","0.00","7"
"07:09:58","35.3","31.7","86.6","29.74","0","1","3.6","0.00","0.00","12"
"07:14:57","35.4","31.9","87","29.75","358","0.2","2.4","0.00","0.00","12"
"07:19:56","36.1","32.7","87.4","29.75","327","0.8","3.6","0.00","0.00","12"
"07:24:58","37","33.4","86.8","29.75","277","1.5","4.8","0.00","0.00","18"
"07:29:56","38.3","34.2","85.1","29.75","223","1.8","6","0.00","0.00","19"
"07:34:58","39.2","34.4","82.5","29.75","221","0.6","2.4","0.00","0.00","21"
"07:39:57","40.1","34.6","80.7","29.75","300","1.6","6","0.00","0.00","65"
"07:44:56","40.7","34.6","78.7","29.75","263","1","3.5","0.00","0.00","77"
"07:49:58","41","34.7","78","29.75","238","0.6","3.6","0.00","0.00","121"
"07:54:56","41.5","34.8","77.1","29.75","236","2.4","7.2","0.00","0.00","151"
"07:59:56","42.4","35.4","76.1","29.75","213","1.8","6.9","0.00","0.00","162"
"08:04:57","43.2","35.8","75.1","29.75","211","1.8","4.8","0.00","0.00","171"
"08:09:56","43.7","36.2","74.5","29.75","222","2.8","6","0.00","0.00","197"
"08:14:59","44.5","36.5","73.4","29.75","242","3.5","7.2","0.00","0.00","225"
"08:19:57","45.4","36.7","71.5","29.75","245","2.9","6","0.00","0.00","262"
"08:24:59","46.3","36.8","69.4","29.75","250","4.8","16.1","0.00","0.00","283"
"08:29:57","47","36.6","67","29.75","284","5","15","0.00","0.00","297"
"08:34:59","47.5","36.9","66.5","29.74","259","6.6","16.1","0.00","0.00","334"
"08:39:58","47.7","36.7","65.6","29.74","273","8.2","17.3","0.00","0.00","348"
"08:44:56","48","37.1","65.8","29.74","237","5.7","16.1","0.00","0.00","362"
"08:49:58","48.3","37.1","65","29.74","240","7.8","18.4","0.00","0.00","336"
"08:54:59","48.5","36.9","63.9","29.74","251","6.8","21.6","0.00","0.00","369"
"08:59:58","48.8","37.2","64.1","29.74","246","7.6","19.6","0.00","0.00","371"
"09:04:58","48.9","36.8","62.9","29.74","266","6.6","13.2","0.00","0.00","418"
"09:09:57","48.9","37","63.3","29.74","263","5.1","10.8","0.00","0.00","445"
"09:14:56","49.1","37.1","63.3","29.75","271","4.4","8.4","0.00","0.00","397"
"09:19:58","49.4","37.2","62.9","29.75","251","4.6","10.8","0.00","0.00","399"
"09:24:56","49.8","37.8","63.3","29.75","242","4.9","13.2","0.00","0.00","390"
"09:29:58","49.6","37.2","62.2","29.75","260","5.2","15","0.00","0.00","388"
"09:34:56","48.5","35.9","61.8","29.75","248","5.3","14.4","0.00","0.00","322"
"09:39:59","47.7","35.7","62.9","29.75","244","5","15","0.00","0.00","148"
"09:44:57","47.4","35.4","63","29.75","232","5.3","10.8","0.00","0.00","178"
"09:49:59","47.8","35.7","62.9","29.75","243","8.6","22.8","0.00","0.00","534"
"09:54:57","49.1","35.8","60","29.75","257","9.8","23","0.00","0.00","534"
"09:59:56","49.5","36.1","59.8","29.75","261","6.3","16.8","0.00","0.00","584"
"10:04:57","50.1","35.6","57.4","29.75","290","7.6","21.9","0.00","0.00","694"
"10:09:56","50.6","37","59.6","29.75","257","6.6","12","0.00","0.00","694"
"10:14:58","50.8","37.1","59.3","29.76","243","8","17.3","0.00","0.00","239"
"10:19:56","51","36.9","58.3","29.76","248","7.9","17.3","0.00","0.00","580"
"10:24:58","51","36.1","56.6","29.76","266","8.8","18","0.00","0.00","689"
"10:29:57","50.4","35.1","55.7","29.76","265","9.1","19.2","0.00","0.00","650"
"10:34:59","51.2","36.9","57.9","29.76","238","8.4","17.3","0.00","0.00","807"
"10:39:58","51.4","36.1","55.8","29.76","255","4.2","12","0.00","0.00","243"
"10:44:56","50.3","35.1","55.8","29.76","258","5.6","11.5","0.00","0.00","186"
"10:49:58","50.1","35.8","57.6","29.76","247","4.6","10.8","0.00","0.00","204"
"10:54:56","50","35.1","56.5","29.76","257","6.9","14.4","0.00","0.00","148"
"10:59:58","49.6","35","57","29.77","248","8","18.4","0.00","0.00","190"
"11:04:59","49.6","34.7","56.4","29.77","253","8.1","16.1","0.00","0.00","318"
"11:09:58","49.6","34.2","55.1","29.77","268","6.1","16.1","0.00","0.00","225"
"11:14:56","49.8","34.5","55.4","29.77","256","5.2","10.8","0.00","0.00","213"
"11:19:59","50.2","35.1","56.1","29.76","266","4.8","15","0.00","0.00","214"
"11:24:57","50.3","35.2","56.2","29.76","242","8.8","18.4","0.00","0.00","336"
"11:29:59","51.5","36.2","55.7","29.76","251","8.4","20.7","0.00","0.00","768"
"11:34:57","52.6","35.8","52.8","29.76","259","8.9","19.6","0.00","0.00","803"
"11:39:57","52","35.3","52.7","29.76","282","9.1","25.3","0.00","0.00","283"
"11:44:59","52.3","35.4","52.4","29.76","270","8.7","19.6","0.00","0.00","381"
"11:49:57","52.3","35.5","52.8","29.76","258","8.9","16.1","0.00","0.00","434"
"11:54:59","52.8","36.1","53","29.76","251","9.1","18.4","0.00","0.00","867"
"11:59:58","53.6","36.6","52.5","29.76","261","7.6","16.1","0.00","0.00","891"
"12:04:59","54.3","37.5","53","29.75","267","10","23","0.00","0.00","835"
"12:09:58","54.8","37.1","51.2","29.75","302","8.6","23","0.00","0.00","932"
"12:14:56","55.6","37.9","51.5","29.75","264","6.9","16.1","0.00","0.00","974"
"12:19:59","56.1","38.3","51.2","29.75","263","7.6","25.3","0.00","0.00","963"
"12:24:59","54.7","36.1","49.4","29.75","290","9.7","25.3","0.00","0.00","967"
"12:29:58","53","34.3","49","29.76","305","9.3","19.6","0.00","0.00","260"
"12:34:56","52.5","34.4","50","29.76","313","8","18.4","0.00","0.00","367"
"12:39:59","52.8","34.9","50.6","29.76","312","7.4","18.4","0.00","0.00","322"
"12:44:57","52.3","34.6","50.7","29.76","264","6.8","16.1","0.00","0.00","322"
"12:49:59","51.9","34","50.4","29.76","287","7.1","17.3","0.00","0.00","220"
"12:54:57","51.8","34.4","51.3","29.76","271","5.8","17.3","0.00","0.00","246"
"12:59:56","52.3","34.9","51.4","29.76","283","6.7","16.1","0.00","0.00","299"
"13:04:59","52.8","35.1","50.8","29.76","276","6.7","15","0.00","0.00","373"
"13:09:58","53.1","35","50","29.76","278","8.9","18.4","0.00","0.00","397"
"13:14:57","53.1","33.5","47.2","29.76","277","9.9","25.3","0.00","0.00","415"
"13:19:56","53.3","34.4","48.6","29.76","293","7.1","18.4","0.00","0.00","475"
"13:24:58","54.5","35.4","48.3","29.76","287","7.8","17.3","0.00","0.00","506"
"13:29:57","54.1","33.7","45.9","29.76","285","8.8","17.3","0.00","0.00","506"
"13:34:59","53.4","33.6","47","29.75","295","9.1","21.9","0.00","0.00","366"
"13:39:58","53.9","34.5","47.7","29.75","266","6.5","15","0.00","0.00","366"
"13:44:56","53.6","33.9","47.1","29.76","302","7.4","18.4","0.00","0.00","232"
"13:49:59","52.9","33","46.7","29.76","330","9.9","24.2","0.00","0.00","276"
"13:54:57","52.2","33.2","48.3","29.76","303","9.2","23","0.00","0.00","297"
"13:59:59","52.3","33.4","48.5","29.76","326","7.7","20.4","0.00","0.00","297"
"14:04:56","52.2","34.4","50.6","29.76","313","6.4","20.7","0.00","0.00","271"
"14:09:59","52.7","34.8","50.6","29.76","281","6.8","21.9","0.00","0.00","415"
"14:14:58","53.8","35.6","50","29.76","322","11.1","26.4","0.00","0.00","445"
"14:19:57","52.7","34.5","49.8","29.76","322","12.1","26.5","0.00","0.00","366"
"14:24:59","52","34.7","51.7","29.76","302","7.2","18.4","0.00","0.00","274"
"14:29:57","51.3","34.9","53.4","29.77","300","7.4","19.6","0.00","0.00","316"
"14:34:59","52.5","37.4","56.3","29.77","308","6.7","21.6","0.00","0.00","860"
"14:39:58","53.6","37.1","53.6","29.77","295","9.1","21.9","0.00","0.00","1013"
"14:44:57","52.7","36.7","54.4","29.78","338","11.7","30","0.00","0.00","336"
"14:49:56","50.7","37.3","60","29.78","341","11.1","20.7","0.00","0.00","615"
"14:54:58","50.2","38.2","63.2","29.78","338","10.6","24","0.00","0.00","615"
"14:59:57","50.9","39.6","65.3","29.79","347","10.6","20.7","0.00","0.00","680"
"15:04:57","50.1","38.9","65.1","29.79","303","6.1","19.2","0.00","0.00","388"
"15:09:57","48.9","37.1","63.6","29.79","312","9","21.9","0.00","0.00","304"
"15:14:59","48.2","36.4","63.4","29.79","323","6.8","19.2","0.00","0.00","253"
"15:19:58","48.2","36.9","64.7","29.79","341","10.6","26.5","0.00","0.00","443"
"15:24:56","47.9","36.6","64.7","29.79","321","8.2","20.4","0.00","0.00","297"
"15:29:59","47.5","36.5","65.6","29.80","316","9.6","21.9","0.00","0.00","285"
"15:34:57","46.9","38","71.1","29.80","308","5.9","16.1","0.00","0.00","380"
"15:39:57","47","37.8","70.2","29.80","278","4.1","8.4","0.00","0.00","301"
"15:44:59","47.5","37.8","68.9","29.80","321","6.3","16.1","0.00","0.00","287"
"15:49:57","47.5","37.7","68.7","29.79","269","4.4","9.6","0.00","0.00","162"
"15:54:56","47.5","37.9","69.2","29.79","252","5.5","13.2","0.00","0.00","172"
"15:59:58","47.2","37.5","69","29.80","240","5.2","12.7","0.00","0.00","146"
"16:04:59","47.3","37.8","69.5","29.80","257","5","8.4","0.00","0.00","171"
"16:09:58","47.6","38.3","70.2","29.80","229","4","7.2","0.00","0.00","276"
"16:14:57","48.1","38.3","68.8","29.81","259","4","10.8","0.00","0.00","237"
"16:19:59","48.4","37.6","66.1","29.81","276","4.8","12","0.00","0.00","162"
"16:24:57","48.7","37.7","65.7","29.81","258","4.5","7.2","0.00","0.00","185"
"16:29:56","48.9","36.8","63","29.81","316","6.9","18","0.00","0.00","178"
"16:34:58","48.9","34.7","57.8","29.81","306","7.8","18.4","0.00","0.00","192"
"16:39:57","49.1","34.4","56.8","29.81","312","5.6","17.3","0.00","0.00","160"
"16:44:59","49","33.6","55.2","29.81","342","8.3","21.9","0.00","0.00","105"
"16:49:58","48.7","33.4","55.5","29.81","339","6.7","18.4","0.00","0.00","97"
"16:54:56","48.3","33.1","55.4","29.81","322","5.2","15","0.00","0.00","74"
"16:59:59","48.2","33.1","55.8","29.82","341","4.8","13.2","0.00","0.00","83"
"17:04:59","48","32.8","55.4","29.82","343","7","19.6","0.00","0.00","70"
"17:09:58","47.8","32.5","55.3","29.82","333","8","20.7","0.00","0.00","62"
"17:14:57","47.4","32.5","56","29.83","337","7.2","21.6","0.00","0.00","62"
"17:19:56","47","32.8","57.5","29.83","322","9.4","21.9","0.00","0.00","77"
"17:24:58","46.7","32.6","57.8","29.83","338","8.4","18.4","0.00","0.00","114"
"17:29:57","46.6","32.8","58.5","29.84","331","7.9","18.4","0.00","0.00","200"
"17:34:59","46.6","32.5","57.6","29.84","331","8.2","21.9","0.00","0.00","128"
"17:39:58","46.3","32.2","57.6","29.84","318","8.6","23","0.00","0.00","104"
"17:44:56","46.1","31.8","57.3","29.85","304","8.7","20.7","0.00","0.00","90"
"17:49:56","46","31.7","57.3","29.85","328","7.6","18.4","0.00","0.00","141"
"17:54:57","46.1","31.8","57.2","29.85","318","6.8","18.4","0.00","0.00","151"
"17:59:58","46.4","31.9","56.9","29.85","295","6.9","18.4","0.00","0.00","151"
"18:04:56","46.5","32","56.9","29.85","333","5.6","13.2","0.00","0.00","139"
"18:09:56","46.6","31.9","56.4","29.85","334","5.5","16.1","0.00","0.00","125"
"18:14:59","46.6","31.8","56.2","29.86","319","4.2","8.4","0.00","0.00","98"
"18:19:57","46.7","32.2","56.9","29.86","331","4.1","12","0.00","0.00","97"
"18:24:56","46.6","32.2","57","29.86","319","4.1","13.2","0.00","0.00","77"
"18:29:58","46.6","32.4","57.5","29.87","345","5.7","15","0.00","0.00","123"
"18:34:57","46.7","32.2","57","29.87","340","4.9","15","0.00","0.00","98"
"18:39:56","46.7","31.9","56.2","29.87","324","5.4","16.1","0.00","0.00","79"
"18:44:58","46.6","31.2","54.9","29.87","335","6.2","21.6","0.00","0.00","46"
"18:49:57","46.3","30.4","53.6","29.87","308","7","21.9","0.00","0.00","32"
"18:54:59","46.1","30.2","53.7","29.87","303","5.5","10.8","0.00","0.00","39"
"18:59:57","45.9","29.5","52.5","29.87","304","5.2","13.2","0.00","0.00","30"
"19:04:58","45.9","29.2","52","29.87","318","7.3","20.7","0.00","0.00","37"
"19:09:57","46","29.4","52.2","29.87","332","7","16.1","0.00","0.00","19"
"19:14:57","46.1","28.9","50.9","29.88","318","8.6","19.6","0.00","0.00","16"
"19:19:56","46","28.1","49.4","29.88","331","7.4","17.3","0.00","0.00","16"
"19:24:58","45.9","27.8","49","29.88","328","6.7","15","0.00","0.00","12"
"19:29:57","45.6","27.3","48.5","29.89","342","6.8","17.3","0.00","0.00","11"
"19:34:59","45.3","26.8","48.1","29.89","330","5.7","18.4","0.00","0.00","7"
"19:39:58","45.1","26.5","47.8","29.89","322","7.4","21.6","0.00","0.00","0"
"19:44:56","44.9","26.5","48.1","29.89","337","8.3","21.9","0.00","0.00","0"
"19:49:58","44.7","26.6","48.8","29.89","336","7.8","19.2","0.00","0.00","0"
"19:54:56","44.5","26.6","49.2","29.89","333","7.4","19.6","0.00","0.00","0"
"19:59:59","44.3","26.7","49.9","29.90","317","4.7","12.7","0.00","0.00","0"
"20:04:56","44.1","26.9","50.7","29.90","310","4.2","13.2","0.00","0.00","0"
"20:09:59","44","26.7","50.5","29.90","329","5.8","13.2","0.00","0.00","0"
"20:14:58","44","26.7","50.5","29.90","326","3.6","12","0.00","0.00","0"
"20:19:57","43.9","26.5","50.2","29.90","332","5","13.2","0.00","0.00","0"
"20:24:59","43.9","26.5","50.3","29.90","337","5.1","15.6","0.00","0.00","0"
"20:29:58","43.9","26.2","49.4","29.91","335","8.1","19.6","0.00","0.00","0"
"20:34:57","43.9","26.3","49.7","29.91","324","6.5","18.4","0.00","0.00","0"
"20:39:56","43.9","26.2","49.5","29.91","335","6","13.2","0.00","0.00","0"
"20:44:58","43.8","26.3","49.8","29.91","340","5.6","12","0.00","0.00","0"
"20:49:57","43.6","26.3","50.2","29.91","288","4.1","13.2","0.00","0.00","0"
"20:54:59","43.4","26.2","50.4","29.91","326","5.3","15","0.00","0.00","0"
"20:59:58","43.2","26.3","51","29.92","333","5.5","12","0.00","0.00","0"
"21:04:59","43.1","26.5","51.7","29.92","337","3.7","10.4","0.00","0.00","0"
"21:09:58","42.9","26.5","52","29.92","332","4.2","7.2","0.00","0.00","0"
"21:14:57","42.8","26.5","52.3","29.93","321","5.3","14.4","0.00","0.00","0"
"21:19:59","42.7","26.7","52.9","29.93","321","4.1","12.7","0.00","0.00","0"
"21:24:58","42.6","26.8","53.3","29.93","332","2.6","7.2","0.00","0.00","0"
"21:29:56","42.4","26.9","53.8","29.93","326","3.7","8.4","0.00","0.00","0"
"21:34:58","42.3","26.8","54","29.93","302","2.9","6","0.00","0.00","0"
"21:39:58","42.1","26.9","54.5","29.93","296","3.7","10.8","0.00","0.00","0"
"21:44:56","41.9","26.9","55","29.93","309","3.5","10.8","0.00","0.00","0"
"21:49:59","41.9","26.9","55","29.93","291","3.6","7.2","0.00","0.00","0"
"21:54:57","41.8","26.8","55","29.93","310","4","8.4","0.00","0.00","0"
"21:59:56","41.8","26.9","55.3","29.94","303","2.7","6.9","0.00","0.00","0"
"22:04:56","41.6","26.9","55.6","29.94","320","3.9","8.4","0.00","0.00","0"
"22:09:59","41.6","27.1","56","29.94","326","4.1","12","0.00","0.00","0"
"22:14:58","41.5","27.2","56.4","29.94","288","3.6","8.1","0.00","0.00","0"
"22:19:57","41.5","27.4","57","29.94","287","2.5","7.2","0.00","0.00","0"
"22:24:59","41.5","27.3","56.6","29.94","303","4.6","13.2","0.00","0.00","0"
"22:29:58","41.7","27.3","56.3","29.94","315","5.6","12.7","0.00","0.00","0"
"22:34:56","41.7","27.4","56.6","29.94","320","3.8","11.5","0.00","0.00","0"
"22:39:59","41.6","27.5","57","29.94","310","3.1","10.8","0.00","0.00","0"
"22:44:58","41.3","27.3","57.4","29.94","272","2.3","6","0.00","0.00","0"
"22:49:57","41.1","27.3","57.7","29.94","278","3.1","6","0.00","0.00","0"
"22:54:59","41","27.3","58","29.94","308","4.3","8.4","0.00","0.00","0"
"22:59:57","40.9","27.7","58.8","29.94","300","3.6","15.6","0.00","0.00","0"
"23:04:58","40.8","27.6","59.1","29.94","292","2.8","16.1","0.00","0.00","0"
"23:09:57","40.6","27.8","60","29.94","301","4.6","13.2","0.00","0.00","0"
"23:14:56","40.6","27.8","60","29.94","263","4.7","12","0.00","0.00","0"
"23:19:59","40.7","28.3","60.9","29.93","274","4.8","13.2","0.00","0.00","0"
"23:24:57","40.7","28.3","61","29.93","270","4","14.4","0.00","0.00","0"
"23:29:56","40.7","28.5","61.5","29.93","289","5.6","15","0.00","0.00","0"
"23:34:58","40.6","28.6","62","29.93","276","5.5","12","0.00","0.00","0"
"23:39:57","40.5","28.5","62","29.93","270","5.2","10.8","0.00","0.00","0"
"23:44:56","40.4","28.5","62.1","29.94","300","4","10.4","0.00","0.00","0"
"23:49:55","40.3","28.7","63","29.94","317","4.8","14.4","0.00","0.00","0"
